Terminal Aerodrome Forecast
Issued by NWS Columbia, SC

Home | Current Version | Previous Version | Text Only | Print | Product List | Glossary On
Versions: 1 2 3 4 5 6 7 8 9 10 11 12 13 14 15 16 17 18 19 20 21 22 23 24 25 26 27 28 29 30 31 32 33 34 35 36 37 38 39 40 41 42
708
FTAK31 PAJN 210531
TAFAGS
TAF
PAGS 210531Z 2106/2206 13007KT P6SM -SHRA BKN040 OVC060
     FM210900 12007KT P6SM -SHRA SCT015 BKN025 OVC040
     FM211500 35009KT P6SM VCSH SCT025 OVC040
     FM211800 34007KT P6SM BKN060
     FM220000 04008KT P6SM -RA SCT015 BKN025 OVC040
     FM220400 34005KT P6SM -RA BKN040 OVC060
      AMD LTD TO CLD VIS AND WIND=

USA.gov is the U.S. government's official web portal to all federal, state and local government web resources and services.